Tracking 18945 objects as of 21-Jan-2018
HD Live streaming from Space Station
objects crossing your sky now

MOZHAYETS

Track MOZHAYETS now!
10-day predictions
MOZHAYETS is classified as:


NORAD ID: 27560
Int'l Code: 2002-054B
Perigee: 678.4 km
Apogee: 737.3 km
Inclination: 98.2 °
Period: 98.8 minutes
Semi major axis: 7078 km
RCS: 1.03 m2 (large)
Launch date: November 28, 2002
Source: Commonwealth of Independent States (former USSR) (CIS)
Launch site: PLESETSK MISSILE AND SPACE COMPLEX (PKMTR)
aabbcc
Your satellite tracking list
Your tracking list is empty




NASA's NSSDC Master Catalog

Two Line Element Set (TLE):
1 27560U 02054B   18020.91706770 +.00000070 +00000-0 +25375-4 0  9992
2 27560 098.2348 157.7724 0041622 154.4084 002.1462 14.57679564804764
Source of the keplerian elements: AFSPC